Regional Weather Roundup
Issued by NWS

Home | Current Version | Previous Version | Graphics & Text | Print | Product List | Glossary On
Versions: 1 2 3 4 5 6 7 8 9 10 11 12 13 14 15 16 17 18 19 20 21 22 23 24 25 26 27 28 29 30 31 32 33 34 35 36 37 38 39 40 41 42 43 44 45 46 47
000
ASUS43 KDMX 230307
RWRIA

WEATHER ROUNDUP FOR IOWA
NATIONAL WEATHER SERVICE DES MOINES IA
1000 PM CDT MON SEP 22 2014

NOTE: "FAIR" INDICATES FEW OR NO CLOUDS BELOW 12,000 FEET WITH NO
SIGNIFICANT WEATHER AND/OR OBSTRUCTIONS TO VISIBILITY.

* - THESE STATIONS ARE NOT NWS STATIONS...THUS NOT UNDER NWS
QUALITY CONTROL.  THEY ALSO DO NOT REPORT WEATHER SUCH
AS PRECIPITATION OR FOG.

IAZ001>003-012>014-020>022-031>034-043>046-230400-
   NORTHWEST IOWA

CITY           SKY/WX    TMP DP  RH WIND       PRES   REMARKS
CARROLL *      PTCLDY    54  52  94 S3        30.20F
CHEROKEE *     MOCLDY    55  52  88 CALM      30.19S
DENISON *      CLEAR     57  54  88 SE6       30.18S
LE MARS *        N/A     61  52  72 VRB6      30.17S
ORANGE CITY *  CLEAR     59  50  72 SE3       30.18S
SHELDON *      CLEAR     55  52  88 SE7       30.17S
SIOUX CITY     MOCLDY    61  52  72 SE6       30.17R
SPENCER        PTCLDY    54  49  83 SE7       30.19R
STORM LAKE *   CLEAR     55  54  94 S8        30.20R
$$

IAZ055>058-069>071-079>083-090>094-230400-
   SOUTHWEST IOWA

CITY           SKY/WX    TMP DP  RH WIND       PRES   REMARKS
ATLANTIC *     CLEAR     57  52  82 S3        30.20S
AUDUBON *      CLEAR     54  46  76 CALM      30.22S
CLARINDA *     CLEAR     54  52  94 CALM      30.23S
COUNCIL BLFS * CLEAR     59  52  77 SE5       30.19R
CRESTON *      CLEAR     57  52  82 SE6       30.23S
HARLAN  *      CLEAR     55  54  94 CALM      30.23F
LAMONI         MOCLDY    60  51  72 SE7       30.24R
RED OAK *      CLOUDY    55  52  88 CALM      30.21S
SHENANDOAH *   CLEAR     57  52  82 CALM      30.21S
$$

IAZ047>049-059>061-072>074-084-230400-
   CENTRAL IOWA

CITY           SKY/WX    TMP DP  RH WIND       PRES   REMARKS
AMES           PTCLDY    53  50  89 S6        30.22S
ANKENY *       CLEAR     54  52  94 CALM      30.22S
CHARITON *     PTCLDY    57  52  82 SE6       30.24S
DES MOINES     PTCLDY    61  51  70 S7        30.22S
GRINNELL*      CLEAR     55  48  76 S6        30.24F
KNOXVILLE *    CLEAR     59  50  72 S6        30.23S
MARSHALLTOWN   CLEAR     57  51  80 S6        30.22F
PELLA *        CLEAR     54  50  87 SE3       30.25S
PERRY *          N/A     54  52  94 S5        30.21F
$$

IAZ004>006-015-016-023>025-035-036-230400-
   NORTH CENTRAL IOWA

CITY           SKY/WX    TMP DP  RH WIND       PRES   REMARKS
ALGONA *       CLEAR     55  50  82 S7        30.20S
CLARION *        N/A     55  48  76 S7        30.21S
ESTHERVILLE    CLEAR     54  48  80 S7        30.19R
FORT DODGE *   PTCLDY    55  48  76 S3        30.21S
MASON CITY     CLEAR     52  48  86 S6        30.22S
FOREST CITY *  CLEAR     54  50  87 CALM      30.20S
IOWA FALLS *     N/A     55  48  76 S7        30.22F
$$

IAZ007>011-017>019-026>030-037>042-050>054-066-230400-
   NORTHEAST IOWA

CITY           SKY/WX    TMP DP  RH WIND       PRES   REMARKS
CEDAR RAPIDS   CLEAR     52  50  93 S3        30.24R
CHARLES CITY * CLEAR     55  48  76 S6        30.22S
CLINTON *      CLEAR     52  45  76 CALM      30.29R
DECORAH *      CLEAR     57  48  72 S3        30.22S
DUBUQUE        CLEAR     50  46  86 S3        30.26R
MONTICELLO *   CLEAR     48  48 100 CALM      30.25R
OELWEIN *      CLEAR     52  48  87 S5        30.24S
WATERLOO       CLEAR     56  48  74 CALM      30.22R
$$

IAZ064-065-067-068-078-230400-
   EAST CENTRAL IOWA

CITY           SKY/WX    TMP DP  RH WIND       PRES   REMARKS
DAVENPORT      CLEAR     53  46  77 CALM      30.26S
IOWA CITY      CLEAR     53  50  89 CALM      30.26R
MT. PLEASANT * CLEAR     52  48  87 CALM      30.26S
MUSCATINE *    CLEAR     52  50  93 CALM      30.26S
QUAD CITIES    CLEAR     50  47  89 CALM      30.26R
$$

IAZ062-063-075>077-085>089-095>099-230400-
   SOUTHEAST IOWA

CITY           SKY/WX    TMP DP  RH WIND       PRES   REMARKS
BURLINGTON     CLEAR     51  49  92 CALM      30.26S
FAIRFIELD *    CLEAR     55  50  82 S6        30.25F
FORT MADISON * CLEAR     57  48  72 CALM      30.27S
KEOKUK *       CLEAR     54  52  94 CALM      30.26R FOG
OSKALOOSA *      N/A     54  48  82 S7        30.25S
CENTERVILLE *  CLEAR     50  50 100 SE3       30.26S
OTTUMWA        CLEAR     52  49  89 SE5       30.25S
WASHINGTON *   CLEAR     52  50  93 S5        30.25S
$$

ABBREVIATIONS USED IN REMARKS
   TC - TEMPERATURES IN CELSIUS
  WCI - WIND CHILL INDEX
   HX - HEAT INDEX
  VSB - VISIBILITY
$$




USA.gov is the U.S. government's official web portal to all federal, state and local government web resources and services.